星链-35552(STARLINK-35552)

导读 | 豆包AI

STARLINK-35552是美国SpaceX星链(Starlink)星座的一员,于2025年10月19日发射。作为星链低轨卫星互联网项目的组网卫星,它依托星链成熟技术,配备相控阵天线与霍尔推进系统,运行在近地轨道,助力实现全球高速低延迟宽带互联网覆盖,为偏远地区、特殊场景提供网络接入服务,支撑星链星座规模与服务能力持续扩张。

基本信息
目录编号:
66058
目录名称:
STARLINK-35552
国际标识:
2025-235A
轨道中心:
EARTH
卫星名称:
星链-35552
卫星全名:
星链-35552(STARLINK-35552)
卫星状态:
在轨 (已飞行218 天)
发射日期:
2025-10-19 UTC
国别 :
美国 (US)
星等 :
--
轨道信息
数据来源 国际轨道数据
星历时间: 2026-05-25T08:22:36+0800
11小时前
查看轨道信息
半长轴: 6840.831km
偏心率: 0.0001789
轨道倾角: 53.159°
近地点辐角 89.639°
升交点赤经 247.416°
平近点角 270.482°
近地点: 461.47km
远地点: 463.918km
周期: 93.848分钟
每日圈数: 15.344034
详细信息
固有亮度:
5
最大亮度:
2.5
卫星平台:
Starlink V1.0
覆盖范围:
全球
运营商:
太空探索技术公司
运营商所在国:
美国
制造商(研发单位):
太空探索技术公司
制造商所在国:
美国
使用方式:
暂无
卫星简介
Starlink 计划是 SpaceX 推出的全球卫星互联网项目,通过发射低轨道卫星,为全球尤其是偏远地区提供高速、低延迟的互联网服务。自 2019 年起,Starlink 已部署数千颗卫星,旨在缩小全球数字鸿沟,推动互联网普及。该项目还为军事、航空等行业提供通信支持,带来广泛经济效益。
2D轨道图
3D轨道图
轨道高度分析图
轨道倾角分析图
轨道综合分析图
查看轨道综合分析图